Weather History for Craig, CO

Change the Weather History Date:

Saturday, May 11, 2013

  Actual Average Record
Temperature  
Mean Temperature 52 °F 49 °F  
Max Temperature 71 °F 66 °F 80 °F (2007)
Min Temperature 32 °F 33 °F 19 °F (1999)
Degree Days  
Heating Degree Days 13 16  
Month to date heating degree days 191 190  
Since 1 July heating degree days 8325 8202  
Cooling Degree Days 0 0  
Month to date cooling degree days 0 0  
Year to date cooling degree days 0 0  
Growing Degree Days 2 (Base 50)    
Moisture  
Dew Point 30 °F    
Average Humidity 51    
Maximum Humidity 82    
Minimum Humidity 20    
Precipitation  
Precipitation 0.00 in 0.05 in 0.60 in (2014)
Month to date precipitation 0.26 0.63  
Year to date precipitation 4.20 5.28  
Sea Level Pressure  
Sea Level Pressure 30.26 in    
Wind  
Wind Speed 4 mph (SW)    
Max Wind Speed 22 mph    
Max Gust Speed 29 mph    
Visibility 10 miles    
Events      
T = Trace of Precipitation, MM = Missing Value Source: NWS Daily Summary

Daily Weather History Graph

Daily Weather History Graph

Search for Another Location

Airport:

Trip Planner

Search our weather history database for the weather conditions in past years. The results will help you decide how hot, cold, wet, or windy it might be!

Date:

Astronomy

May. 11, 2013 Rise Set
Actual Time 5:57 AM MDT 8:16 PM MDT
Civil Twilight 5:26 AM MDT 8:46 PM MDT
Nautical Twilight 4:48 AM MDT 9:24 PM MDT
Astronomical Twilight 4:07 AM MDT 10:06 PM MDT
Moon 7:07 AM MDT (5/11) 9:59 PM MDT (5/11)
Length of Visible Light 15h 20m
Length of Day
14h 19m
Waxing Crescent, 3% of the Moon is Illuminated
May 11
Waxing Crescent
May 17
First Quarter
May 24
Full
May 31
Last Quarter
Jun 8
New

Hourly Weather History & Observations

Time (MDT) Temp. Windchill Dew Point Humidity Pressure Visibility Wind Dir Wind Speed Gust Speed Precip Events Conditions
12:53 AM 41.0 °F - 28.9 °F 62% 30.28 in 10.0 mi Calm Calm - N/A   Clear
1:53 AM 37.9 °F 35.5 °F 28.9 °F 70% 30.30 in 10.0 mi ESE 3.5 mph - N/A   Clear
2:53 AM 37.0 °F - 28.9 °F 73% 30.29 in 10.0 mi Calm Calm - N/A   Clear
3:53 AM 33.1 °F 30.0 °F 28.0 °F 82% 30.30 in 10.0 mi SW 3.5 mph - N/A   Clear
4:53 AM 32.0 °F 27.5 °F 27.0 °F 82% 30.31 in 10.0 mi SW 4.6 mph - N/A   Clear
5:53 AM 33.1 °F - 27.0 °F 78% 30.34 in 10.0 mi Calm Calm - N/A   Clear
6:53 AM 37.0 °F - 30.9 °F 79% 30.33 in 10.0 mi Calm Calm - N/A   Clear
7:53 AM 42.1 °F - 33.1 °F 70% 30.32 in 10.0 mi Calm Calm - N/A   Clear
8:53 AM 50.0 °F - 34.0 °F 54% 30.31 in 10.0 mi Calm Calm - N/A   Clear
9:53 AM 59.0 °F - 33.1 °F 38% 30.29 in 10.0 mi Calm Calm - N/A   Clear
10:53 AM 62.1 °F - 28.9 °F 29% 30.30 in 10.0 mi WNW 6.9 mph - N/A   Partly Cloudy
11:53 AM 66.0 °F - 28.0 °F 24% 30.28 in 10.0 mi SW 9.2 mph - N/A   Clear
12:53 PM 66.0 °F - 27.0 °F 23% 30.26 in 10.0 mi WSW 4.6 mph - N/A   Mostly Cloudy
1:53 PM 66.0 °F - 28.0 °F 24% 30.25 in 10.0 mi Variable 3.5 mph - N/A   Mostly Cloudy
2:53 PM 69.1 °F - 27.0 °F 21% 30.23 in 10.0 mi WNW 19.6 mph 25.3 mph N/A   Overcast
3:53 PM 69.1 °F - 28.0 °F 22% 30.22 in 10.0 mi SW 10.4 mph 19.6 mph N/A   Partly Cloudy
4:53 PM 68.0 °F - 28.9 °F 23% 30.22 in 10.0 mi SW 11.5 mph 19.6 mph N/A   Clear
5:53 PM 64.0 °F - 28.9 °F 27% 30.23 in 10.0 mi NNE 8.1 mph - N/A   Overcast
6:53 PM 64.0 °F - 30.9 °F 29% 30.21 in 10.0 mi Calm Calm - N/A   Partly Cloudy
7:53 PM 59.0 °F - 34.0 °F 39% 30.21 in 10.0 mi Calm Calm - N/A   Mostly Cloudy
8:53 PM 51.1 °F - 34.0 °F 52% 30.21 in 10.0 mi ESE 3.5 mph - N/A   Clear
9:53 PM 48.9 °F - 34.0 °F 56% 30.20 in 10.0 mi Calm Calm - N/A   Clear
10:53 PM 46.9 °F - 36.0 °F 66% 30.21 in 10.0 mi Calm Calm - N/A   Partly Cloudy
11:53 PM 46.9 °F - 34.0 °F 61% 30.18 in 10.0 mi Calm Calm - N/A   Partly Cloudy